Weather History for Truckee-Tahoe, CA

Change the Weather History Date:

Thursday, December 12, 2013

  Actual Average Record
Temperature  
Mean Temperature 18 °F -  
Max Temperature 37 °F 39 °F 56 °F (1958)
Min Temperature 0 °F 14 °F -18 °F (1972)
Degree Days  
Heating Degree Days 46    
Moisture  
Dew Point 10 °F    
Average Humidity 84    
Maximum Humidity 93    
Minimum Humidity 65    
Precipitation  
Precipitation 0.00 in - - ()
Snow  
Snow 0.00 in - - ()
Snow Depth 7.00 in    
Sea Level Pressure  
Sea Level Pressure 30.27 in    
Wind  
Wind Speed 1 mph (SSW)    
Max Wind Speed 6 mph    
Max Gust Speed -    
Visibility 6 miles    
Events Fog , Snow    
Averages and records for this station are not official NWS values.
T = Trace of Precipitation, MM = Missing Value Source: NWS Daily Summary

Daily Weather History Graph

Daily Weather History Graph

Search for Another Location

Airport:

Trip Planner

Search our weather history database for the weather conditions in past years. The results will help you decide how hot, cold, wet, or windy it might be!

Date:

Astronomy

Dec. 12, 2013 Rise Set
Actual Time 7:11 AM PST 4:37 PM PST
Civil Twilight 6:41 AM PST 5:07 PM PST
Nautical Twilight 6:07 AM PST 5:41 PM PST
Astronomical Twilight 5:34 AM PST 6:13 PM PST
Moon 1:46 PM PST (12/12) 2:40 AM PST (12/12)
Length of Visible Light 10h 26m
Length of Day
9h 26m
Waxing Gibbous, 81% of the Moon is Illuminated
Dec 12
Waxing Gibbous
Dec 17
Full
Dec 25
Last Quarter
Jan 1
New
Jan 7
First Quarter

Hourly Weather History & Observations

Time (PST) Temp. Windchill Dew Point Humidity Pressure Visibility Wind Dir Wind Speed Gust Speed Precip Events Conditions
12:15 AM 6.8 °F - 5.0 °F 92% 30.33 in 0.2 mi Calm Calm - N/A Fog Light Freezing Fog
12:35 AM 5.0 °F - -0.4 °F 78% 30.33 in 0.2 mi Calm Calm - N/A Fog Light Freezing Fog
12:55 AM 3.2 °F - -0.4 °F 85% 30.33 in 0.2 mi Calm Calm - N/A Fog Light Freezing Fog
1:15 AM 5.0 °F - 1.4 °F 85% 30.33 in 0.2 mi Calm Calm - N/A Fog Light Freezing Fog
1:35 AM 5.0 °F - 1.4 °F 85% 30.33 in 0.2 mi Calm Calm - N/A Fog Light Freezing Fog
1:55 AM 5.0 °F - 1.4 °F 85% 30.33 in 0.5 mi Calm Calm - N/A Fog Light Freezing Fog
2:15 AM 5.0 °F - -0.4 °F 78% 30.33 in 0.2 mi Calm Calm - N/A Fog Light Freezing Fog
2:35 AM 3.2 °F - -0.4 °F 85% 30.33 in 0.2 mi Calm Calm - N/A Fog Light Freezing Fog
2:55 AM -0.4 °F -8.3 °F -4.0 °F 85% 30.33 in 0.2 mi SSW 3.5 mph - N/A Fog Light Freezing Fog
3:15 AM 3.2 °F - -0.4 °F 85% 30.33 in 0.2 mi Calm Calm - N/A Fog Light Freezing Fog
3:35 AM 3.2 °F - -0.4 °F 85% 30.32 in 0.2 mi Calm Calm - N/A Fog Light Freezing Fog
3:55 AM 5.0 °F - -0.4 °F 78% 30.32 in 0.2 mi Calm Calm - N/A Fog Light Freezing Fog
4:15 AM 1.4 °F - -2.2 °F 85% 30.32 in 0.2 mi Calm Calm - N/A Fog Light Freezing Fog
4:35 AM -0.4 °F - -4.0 °F 85% 30.32 in 0.2 mi Calm Calm - N/A Fog Light Freezing Fog
4:55 AM -0.4 °F - -4.0 °F 85% 30.32 in 0.2 mi Calm Calm - N/A Fog Light Freezing Fog
5:15 AM 1.4 °F - -2.2 °F 85% 30.32 in 0.2 mi Calm Calm - N/A Fog Light Freezing Fog
5:35 AM -0.4 °F - -4.0 °F 85% 30.32 in 0.2 mi Calm Calm - N/A Fog Light Freezing Fog
6:55 AM 1.4 °F - -2.2 °F 85% 30.34 in 0.2 mi Calm Calm - N/A Fog Light Freezing Fog
7:55 AM -0.4 °F - -4.0 °F 85% 30.34 in 0.2 mi Calm Calm - N/A Fog Light Freezing Fog
8:55 AM 6.8 °F - 3.2 °F 85% 30.34 in 10.0 mi Calm Calm - N/A   Partly Cloudy
9:55 AM 10.4 °F - 8.6 °F 92% 30.34 in 10.0 mi Calm Calm - N/A   Clear
10:45 AM 15.8 °F - 14.0 °F 93% 30.32 in 10.0 mi Calm Calm - N/A   Clear
11:55 AM 23.0 °F - 21.2 °F 93% 30.27 in 10.0 mi Calm Calm - N/A   Clear
12:55 PM 28.4 °F - 23.0 °F 80% 30.23 in 10.0 mi Calm Calm - N/A   Clear
1:45 PM 35.6 °F - 24.8 °F 65% 30.22 in 10.0 mi Calm Calm - N/A   Clear
2:45 PM 37.4 °F 34.9 °F 26.6 °F 65% 30.21 in 10.0 mi South 3.5 mph - N/A   Clear
3:45 PM 37.4 °F - 26.6 °F 65% 30.21 in 10.0 mi Calm Calm - N/A   Clear
4:45 PM 26.6 °F 21.2 °F 23.0 °F 86% 30.21 in 10.0 mi South 4.6 mph - N/A   Clear
4:55 PM 26.6 °F 22.6 °F 23.0 °F 86% 30.21 in 10.0 mi WNW 3.5 mph - N/A   Clear
5:15 PM 24.8 °F 17.9 °F 19.4 °F 80% 30.21 in 10.0 mi ESE 5.8 mph - N/A   Clear
5:35 PM 21.2 °F - 17.6 °F 86% 30.21 in 10.0 mi Calm Calm - N/A   Clear
5:55 PM 26.6 °F - 19.4 °F 74% 30.21 in 10.0 mi Calm Calm - N/A Snow Light Snow
6:15 PM 21.2 °F 14.9 °F 17.6 °F 86% 30.22 in 10.0 mi South 4.6 mph - N/A   Clear
6:35 PM 21.2 °F - 17.6 °F 86% 30.23 in 10.0 mi Calm Calm - N/A   Clear
6:55 PM 23.0 °F 15.8 °F 17.6 °F 80% 30.22 in 10.0 mi South 5.8 mph - N/A   Clear
7:15 PM 17.6 °F - 15.8 °F 93% 30.22 in 10.0 mi Calm Calm - N/A   Clear
7:35 PM 19.4 °F - 14.0 °F 80% 30.24 in 10.0 mi Calm Calm - N/A   Clear
7:55 PM 14.0 °F 6.5 °F 10.4 °F 86% 30.24 in 10.0 mi South 4.6 mph - N/A   Clear
8:15 PM 15.8 °F 10.2 °F 14.0 °F 93% 30.24 in 10.0 mi SW 3.5 mph - N/A   Clear
8:35 PM 19.4 °F 11.5 °F 15.8 °F 86% 30.24 in 10.0 mi NW 5.8 mph - N/A   Clear
8:55 PM 17.6 °F - 14.0 °F 86% 30.24 in 10.0 mi Calm Calm - N/A   Clear
9:15 PM 17.6 °F - 14.0 °F 86% 30.23 in 10.0 mi Calm Calm - N/A   Clear
9:35 PM 17.6 °F - 14.0 °F 86% 30.24 in 10.0 mi Calm Calm - N/A   Clear
9:55 PM 17.6 °F 9.3 °F 14.0 °F 86% 30.24 in 10.0 mi ESE 5.8 mph - N/A   Clear
10:15 PM 15.8 °F 8.6 °F 12.2 °F 86% 30.24 in 10.0 mi WSW 4.6 mph - N/A   Clear
10:35 PM 15.8 °F - 12.2 °F 86% 30.25 in 10.0 mi Calm Calm - N/A   Clear
10:55 PM 19.4 °F - 14.0 °F 80% 30.24 in 10.0 mi Calm Calm - N/A   Clear
11:15 PM 17.6 °F 12.3 °F 14.0 °F 86% 30.25 in 10.0 mi North 3.5 mph - N/A   Clear
11:35 PM 17.6 °F 12.3 °F 14.0 °F 86% 30.25 in 10.0 mi NE 3.5 mph - N/A   Clear
11:55 PM 15.8 °F - 12.2 °F 86% 30.24 in 10.0 mi Calm Calm - N/A   Clear